date,time,SUV Intensity [MED/Hr],UV Index,Daily total [MED],Since Last [MED]
22/09/2023,00:01:34,0.000,0.0,0.0,0.0
22/09/2023,00:02:34,-0.001,0.0,0.0,0.0
22/09/2023,00:03:34,0.000,0.0,0.0,0.0
22/09/2023,00:04:34,0.000,0.0,0.0,0.0
22/09/2023,00:05:34,0.000,0.0,0.0,0.0
22/09/2023,00:06:34,-0.000,0.0,0.0,0.0
22/09/2023,00:07:34,-0.001,0.0,0.0,0.0
22/09/2023,00:08:33,0.000,0.0,0.0,0.0
22/09/2023,00:09:33,0.000,0.0,0.0,0.0
22/09/2023,00:10:33,0.000,0.0,0.0,0.0
22/09/2023,00:11:33,0.001,0.0,0.0,0.0
22/09/2023,00:12:34,-0.001,0.0,0.0,0.0
22/09/2023,00:13:34,0.000,0.0,0.0,0.0
22/09/2023,00:14:34,0.001,0.0,0.0,0.0
22/09/2023,00:15:33,0.000,0.0,0.0,0.0
22/09/2023,00:16:33,0.000,0.0,0.0,0.0
22/09/2023,00:17:33,-0.001,0.0,0.0,0.0
22/09/2023,00:18:34,0.000,0.0,0.0,0.0
22/09/2023,00:19:34,0.001,0.0,0.0,0.0
22/09/2023,00:20:34,-0.001,0.0,0.0,0.0
22/09/2023,00:21:34,0.000,0.0,0.0,0.0
22/09/2023,00:22:33,0.000,0.0,0.0,0.0
22/09/2023,00:23:33,0.000,0.0,0.0,0.0
22/09/2023,00:24:33,0.001,0.0,0.0,0.0
22/09/2023,00:25:33,0.000,0.0,0.0,0.0
22/09/2023,00:26:34,0.001,0.0,0.0,0.0
22/09/2023,00:27:34,0.001,0.0,0.0,0.0
22/09/2023,00:28:34,0.001,0.0,0.0,0.0
22/09/2023,00:29:33,0.000,0.0,0.0,0.0
22/09/2023,00:30:33,0.000,0.0,0.0,0.0
22/09/2023,00:31:33,-0.000,0.0,0.0,0.0
22/09/2023,00:32:33,0.000,0.0,0.0,0.0
22/09/2023,00:33:34,0.000,0.0,0.0,0.0
22/09/2023,00:34:34,0.000,0.0,0.0,0.0
22/09/2023,00:35:33,0.000,0.0,0.0,0.0
22/09/2023,00:36:34,0.000,0.0,0.0,0.0
22/09/2023,00:37:34,-0.001,0.0,0.0,0.0
22/09/2023,00:38:34,0.000,0.0,0.0,0.0
22/09/2023,00:39:34,0.000,0.0,0.0,0.0
22/09/2023,00:40:34,0.001,0.0,0.0,0.0
22/09/2023,00:41:34,0.000,0.0,0.0,0.0
22/09/2023,00:42:34,-0.000,0.0,0.0,0.0
22/09/2023,00:43:33,0.000,0.0,0.0,0.0
22/09/2023,00:44:34,0.001,0.0,0.0,0.0
22/09/2023,00:45:33,0.001,0.0,0.0,0.0
22/09/2023,00:46:34,0.000,0.0,0.0,0.0
22/09/2023,00:47:33,-0.001,0.0,0.0,0.0
22/09/2023,00:48:34,-0.001,0.0,0.0,0.0
22/09/2023,00:49:35,0.001,0.0,0.0,0.0
22/09/2023,00:50:35,0.001,0.0,0.0,0.0
22/09/2023,00:51:34,-0.001,0.0,0.0,0.0
22/09/2023,00:52:34,-0.001,0.0,0.0,0.0
22/09/2023,00:53:34,-0.001,0.0,0.0,0.0
22/09/2023,00:54:33,0.000,0.0,0.0,0.0
22/09/2023,00:55:34,-0.001,0.0,0.0,0.0
22/09/2023,00:56:34,-0.001,0.0,0.0,0.0
22/09/2023,00:57:34,0.000,0.0,0.0,0.0
22/09/2023,00:58:33,0.000,0.0,0.0,0.0
22/09/2023,00:59:34,0.001,0.0,0.0,0.0
22/09/2023,01:00:34,-0.001,0.0,0.0,0.0
22/09/2023,01:01:34,0.000,0.0,0.0,0.0
22/09/2023,01:02:34,0.000,0.0,0.0,0.0
22/09/2023,01:03:33,0.001,0.0,0.0,0.0
22/09/2023,01:04:34,0.000,0.0,0.0,0.0
22/09/2023,01:05:34,0.000,0.0,0.0,0.0
22/09/2023,01:06:34,0.001,0.0,0.0,0.0
22/09/2023,01:07:33,-0.000,0.0,0.0,0.0
22/09/2023,01:08:34,0.000,0.0,0.0,0.0
22/09/2023,01:09:35,-0.001,0.0,0.0,0.0
22/09/2023,01:10:34,0.001,0.0,0.0,0.0
22/09/2023,01:11:34,0.000,0.0,0.0,0.0
22/09/2023,01:12:34,-0.001,0.0,0.0,0.0
22/09/2023,01:13:34,0.001,0.0,0.0,0.0
22/09/2023,01:14:34,-0.000,0.0,0.0,0.0
22/09/2023,01:15:33,-0.001,0.0,0.0,0.0
22/09/2023,01:16:33,-0.000,0.0,0.0,0.0
22/09/2023,01:17:34,0.000,0.0,0.0,0.0
22/09/2023,01:18:34,-0.001,0.0,0.0,0.0
22/09/2023,01:19:34,0.001,0.0,0.0,0.0
22/09/2023,01:20:34,-0.001,0.0,0.0,0.0
22/09/2023,01:21:34,0.001,0.0,0.0,0.0
22/09/2023,01:22:34,0.000,0.0,0.0,0.0
22/09/2023,01:23:33,-0.000,0.0,0.0,0.0
22/09/2023,01:24:31,0.000,0.0,0.0,0.0
22/09/2023,01:25:32,0.000,0.0,0.0,0.0
22/09/2023,01:26:34,0.001,0.0,0.0,0.0
22/09/2023,01:27:34,0.000,0.0,0.0,0.0
22/09/2023,01:28:34,0.001,0.0,0.0,0.0
22/09/2023,01:29:34,-0.001,0.0,0.0,0.0
22/09/2023,01:30:34,0.000,0.0,0.0,0.0
22/09/2023,01:31:34,0.000,0.0,0.0,0.0
22/09/2023,01:32:33,0.000,0.0,0.0,0.0
22/09/2023,01:33:33,0.000,0.0,0.0,0.0
22/09/2023,01:34:34,0.001,0.0,0.0,0.0
22/09/2023,01:35:34,0.000,0.0,0.0,0.0
22/09/2023,01:36:34,0.000,0.0,0.0,0.0
22/09/2023,01:37:34,0.001,0.0,0.0,0.0
22/09/2023,01:38:34,0.000,0.0,0.0,0.0
22/09/2023,01:39:34,0.000,0.0,0.0,0.0
22/09/2023,01:40:33,-0.000,0.0,0.0,0.0
22/09/2023,01:41:33,-0.001,0.0,0.0,0.0
22/09/2023,01:42:33,0.000,0.0,0.0,0.0
22/09/2023,01:43:34,-0.001,0.0,0.0,0.0
22/09/2023,01:44:33,0.000,0.0,0.0,0.0
22/09/2023,01:45:33,0.000,0.0,0.0,0.0
22/09/2023,01:46:34,0.000,0.0,0.0,0.0
22/09/2023,01:47:34,-0.001,0.0,0.0,0.0
22/09/2023,01:48:34,0.001,0.0,0.0,0.0
22/09/2023,01:49:33,0.000,0.0,0.0,0.0
22/09/2023,01:50:33,0.000,0.0,0.0,0.0
22/09/2023,01:51:33,-0.001,0.0,0.0,0.0
22/09/2023,01:52:34,0.001,0.0,0.0,0.0
22/09/2023,01:53:34,0.000,0.0,0.0,0.0
22/09/2023,01:54:34,0.000,0.0,0.0,0.0
22/09/2023,01:55:34,0.000,0.0,0.0,0.0
22/09/2023,01:56:34,0.000,0.0,0.0,0.0
22/09/2023,01:57:33,0.000,0.0,0.0,0.0
22/09/2023,01:58:34,-0.001,0.0,0.0,0.0
22/09/2023,01:59:33,0.001,0.0,0.0,0.0
22/09/2023,02:00:32,0.001,0.0,0.0,0.0
22/09/2023,02:01:32,-0.000,0.0,0.0,0.0
22/09/2023,02:02:33,0.001,0.0,0.0,0.0
22/09/2023,02:03:34,0.000,0.0,0.0,0.0
22/09/2023,02:04:34,-0.001,0.0,0.0,0.0
22/09/2023,02:05:33,0.000,0.0,0.0,0.0
22/09/2023,02:06:34,0.002,0.0,0.0,0.0
22/09/2023,02:07:34,0.001,0.0,0.0,0.0
22/09/2023,02:08:34,-0.000,0.0,0.0,0.0
22/09/2023,02:09:34,0.000,0.0,0.0,0.0
22/09/2023,02:10:34,-0.000,0.0,0.0,0.0
22/09/2023,02:11:34,-0.000,0.0,0.0,0.0
22/09/2023,02:12:35,0.001,0.0,0.0,0.0
22/09/2023,02:13:33,0.000,0.0,0.0,0.0
22/09/2023,02:14:34,0.000,0.0,0.0,0.0
22/09/2023,02:15:33,0.002,0.0,0.0,0.0
22/09/2023,02:16:31,0.000,0.0,0.0,0.0
22/09/2023,02:17:32,0.000,0.0,0.0,0.0
22/09/2023,02:18:34,-0.001,0.0,0.0,0.0
22/09/2023,02:19:34,0.000,0.0,0.0,0.0
22/09/2023,02:20:33,-0.001,0.0,0.0,0.0
22/09/2023,02:21:34,0.001,0.0,0.0,0.0
22/09/2023,02:22:34,0.002,0.0,0.0,0.0
22/09/2023,02:23:34,0.001,0.0,0.0,0.0
22/09/2023,02:24:34,0.001,0.0,0.0,0.0
22/09/2023,02:25:34,-0.000,0.0,0.0,0.0
22/09/2023,02:26:34,0.001,0.0,0.0,0.0
22/09/2023,02:27:34,0.001,0.0,0.0,0.0
22/09/2023,02:28:34,0.000,0.0,0.0,0.0
22/09/2023,02:29:34,-0.000,0.0,0.0,0.0
22/09/2023,02:30:33,0.001,0.0,0.0,0.0
22/09/2023,02:31:33,-0.001,0.0,0.0,0.0
22/09/2023,02:32:34,0.000,0.0,0.0,0.0
22/09/2023,02:33:33,-0.000,0.0,0.0,0.0
22/09/2023,02:34:33,0.000,0.0,0.0,0.0
22/09/2023,02:35:33,-0.000,0.0,0.0,0.0
22/09/2023,02:36:34,0.001,0.0,0.0,0.0
22/09/2023,02:37:34,-0.001,0.0,0.0,0.0
22/09/2023,02:38:35,0.001,0.0,0.0,0.0
22/09/2023,02:39:35,0.000,0.0,0.0,0.0
22/09/2023,02:40:33,0.001,0.0,0.0,0.0
22/09/2023,02:41:33,0.001,0.0,0.0,0.0
22/09/2023,02:42:34,-0.000,0.0,0.0,0.0
22/09/2023,02:43:34,0.000,0.0,0.0,0.0
22/09/2023,02:44:34,0.000,0.0,0.0,0.0
22/09/2023,02:45:33,0.001,0.0,0.0,0.0
22/09/2023,02:46:34,0.000,0.0,0.0,0.0
22/09/2023,02:47:33,0.001,0.0,0.0,0.0
22/09/2023,02:48:34,0.000,0.0,0.0,0.0
22/09/2023,02:49:33,0.000,0.0,0.0,0.0
22/09/2023,02:50:34,0.000,0.0,0.0,0.0
22/09/2023,02:51:33,0.001,0.0,0.0,0.0
22/09/2023,02:52:32,0.001,0.0,0.0,0.0
22/09/2023,02:53:32,-0.000,0.0,0.0,0.0
22/09/2023,02:54:34,0.001,0.0,0.0,0.0
22/09/2023,02:55:34,0.002,0.0,0.0,0.0
22/09/2023,02:56:34,0.001,0.0,0.0,0.0
22/09/2023,02:57:34,0.001,0.0,0.0,0.0
22/09/2023,02:58:34,-0.001,0.0,0.0,0.0
22/09/2023,02:59:34,0.001,0.0,0.0,0.0
22/09/2023,03:00:34,0.001,0.0,0.0,0.0
22/09/2023,03:01:34,0.001,0.0,0.0,0.0
22/09/2023,03:02:34,0.001,0.0,0.0,0.0
22/09/2023,03:03:33,0.000,0.0,0.0,0.0
22/09/2023,03:04:34,0.001,0.0,0.0,0.0
22/09/2023,03:05:34,0.001,0.0,0.0,0.0
22/09/2023,03:06:34,-0.001,0.0,0.0,0.0
22/09/2023,03:07:34,0.001,0.0,0.0,0.0
22/09/2023,03:08:34,0.001,0.0,0.0,0.0
22/09/2023,03:09:34,0.001,0.0,0.0,0.0
22/09/2023,03:10:34,0.000,0.0,0.0,0.0
22/09/2023,03:11:34,0.001,0.0,0.0,0.0
22/09/2023,03:12:34,-0.000,0.0,0.0,0.0
22/09/2023,03:13:34,0.001,0.0,0.0,0.0
22/09/2023,03:14:34,0.001,0.0,0.0,0.0
22/09/2023,03:15:34,-0.000,0.0,0.0,0.0
22/09/2023,03:16:34,0.002,0.0,0.0,0.0
22/09/2023,03:17:34,0.000,0.0,0.0,0.0
22/09/2023,03:18:34,0.001,0.0,0.0,0.0
22/09/2023,03:19:34,0.001,0.0,0.0,0.0
22/09/2023,03:20:34,0.001,0.0,0.0,0.0
22/09/2023,03:21:34,0.000,0.0,0.0,0.0
22/09/2023,03:22:34,0.002,0.0,0.0,0.0
22/09/2023,03:23:34,0.001,0.0,0.0,0.0
22/09/2023,03:24:34,0.001,0.0,0.0,0.0
22/09/2023,03:25:34,0.000,0.0,0.0,0.0
22/09/2023,03:26:34,0.001,0.0,0.0,0.0
22/09/2023,03:27:34,0.001,0.0,0.0,0.0
22/09/2023,03:28:34,0.000,0.0,0.0,0.0
22/09/2023,03:29:34,0.001,0.0,0.0,0.0
22/09/2023,03:30:34,0.001,0.0,0.0,0.0
22/09/2023,03:31:34,0.001,0.0,0.0,0.0
22/09/2023,03:32:34,0.001,0.0,0.0,0.0
22/09/2023,03:33:34,0.001,0.0,0.0,0.0
22/09/2023,03:34:34,0.002,0.0,0.0,0.0
22/09/2023,03:35:34,0.000,0.0,0.0,0.0
22/09/2023,03:36:34,0.001,0.0,0.0,0.0
22/09/2023,03:37:34,0.001,0.0,0.0,0.0
22/09/2023,03:38:34,0.002,0.0,0.0,0.0
22/09/2023,03:39:34,0.001,0.0,0.0,0.0
22/09/2023,03:40:34,0.001,0.0,0.0,0.0
22/09/2023,03:41:34,0.001,0.0,0.0,0.0
22/09/2023,03:42:34,0.001,0.0,0.0,0.0
22/09/2023,03:43:34,0.001,0.0,0.0,0.0
22/09/2023,03:44:34,0.001,0.0,0.0,0.0
22/09/2023,03:45:34,0.001,0.0,0.0,0.0
22/09/2023,03:46:33,0.001,0.0,0.0,0.0
22/09/2023,03:47:34,0.000,0.0,0.0,0.0
22/09/2023,03:48:34,0.000,0.0,0.0,0.0
22/09/2023,03:49:34,0.000,0.0,0.0,0.0
22/09/2023,03:50:34,0.000,0.0,0.0,0.0
22/09/2023,03:51:34,0.001,0.0,0.0,0.0
22/09/2023,03:52:34,0.001,0.0,0.0,0.0
22/09/2023,03:53:34,0.001,0.0,0.0,0.0
22/09/2023,03:54:35,-0.000,0.0,0.0,0.0
22/09/2023,03:55:35,0.002,0.0,0.0,0.0
22/09/2023,03:56:34,0.000,0.0,0.0,0.0
22/09/2023,03:57:33,0.001,0.0,0.0,0.0
22/09/2023,03:58:34,0.001,0.0,0.0,0.0
22/09/2023,03:59:34,0.001,0.0,0.0,0.0
22/09/2023,04:00:34,0.001,0.0,0.0,0.0
22/09/2023,04:01:34,-0.000,0.0,0.0,0.0
22/09/2023,04:02:34,0.002,0.0,0.0,0.0
22/09/2023,04:03:34,0.001,0.0,0.0,0.0
22/09/2023,04:04:34,0.001,0.0,0.0,0.0
22/09/2023,04:05:34,0.001,0.0,0.0,0.0
22/09/2023,04:06:34,0.001,0.0,0.0,0.0
22/09/2023,04:07:34,0.000,0.0,0.0,0.0
22/09/2023,04:08:34,0.002,0.0,0.0,0.0
22/09/2023,04:09:34,0.002,0.0,0.0,0.0
22/09/2023,04:10:34,0.001,0.0,0.0,0.0
22/09/2023,04:11:34,0.002,0.0,0.0,0.0
22/09/2023,04:12:34,0.001,0.0,0.0,0.0
22/09/2023,04:13:32,-0.000,0.0,0.0,0.0
22/09/2023,04:14:32,0.001,0.0,0.0,0.0
22/09/2023,04:15:34,0.001,0.0,0.0,0.0
22/09/2023,04:16:34,0.001,0.0,0.0,0.0
22/09/2023,04:17:34,-0.000,0.0,0.0,0.0
22/09/2023,04:18:32,-0.000,0.0,0.0,0.0
22/09/2023,04:19:32,0.001,0.0,0.0,0.0
22/09/2023,04:20:34,0.001,0.0,0.0,0.0
22/09/2023,04:21:34,0.002,0.0,0.0,0.0
22/09/2023,04:22:34,0.000,0.0,0.0,0.0
22/09/2023,04:23:34,0.001,0.0,0.0,0.0
22/09/2023,04:24:34,0.001,0.0,0.0,0.0
22/09/2023,04:25:34,0.001,0.0,0.0,0.0
22/09/2023,04:26:34,0.002,0.0,0.0,0.0
22/09/2023,04:27:34,0.002,0.0,0.0,0.0
22/09/2023,04:28:32,0.001,0.0,0.0,0.0
22/09/2023,04:29:32,0.001,0.0,0.0,0.0
22/09/2023,04:30:34,0.001,0.0,0.0,0.0
22/09/2023,04:31:33,0.001,0.0,0.0,0.0
22/09/2023,04:32:32,0.001,0.0,0.0,0.0
22/09/2023,04:33:32,0.002,0.0,0.0,0.0
22/09/2023,04:34:34,0.001,0.0,0.0,0.0
22/09/2023,04:35:34,0.001,0.0,0.0,0.0
22/09/2023,04:36:34,0.001,0.0,0.0,0.0
22/09/2023,04:37:34,0.002,0.0,0.0,0.0
22/09/2023,04:38:34,0.001,0.0,0.0,0.0
22/09/2023,04:39:34,0.000,0.0,0.0,0.0
22/09/2023,04:40:34,0.001,0.0,0.0,0.0
22/09/2023,04:41:34,0.001,0.0,0.0,0.0
22/09/2023,04:42:33,0.001,0.0,0.0,0.0
22/09/2023,04:43:34,0.001,0.0,0.0,0.0
22/09/2023,04:44:34,0.001,0.0,0.0,0.0
22/09/2023,04:45:34,0.001,0.0,0.0,0.0
22/09/2023,04:46:34,0.001,0.0,0.0,0.0
22/09/2023,04:47:34,0.000,0.0,0.0,0.0
22/09/2023,04:48:34,0.001,0.0,0.0,0.0
22/09/2023,04:49:34,0.000,0.0,0.0,0.0
22/09/2023,04:50:34,0.002,0.0,0.0,0.0
22/09/2023,04:51:34,0.001,0.0,0.0,0.0
22/09/2023,04:52:33,0.001,0.0,0.0,0.0
22/09/2023,04:53:34,0.001,0.0,0.0,0.0
22/09/2023,04:54:34,0.000,0.0,0.0,0.0
22/09/2023,04:55:34,0.000,0.0,0.0,0.0
22/09/2023,04:56:34,0.001,0.0,0.0,0.0
22/09/2023,04:57:34,0.000,0.0,0.0,0.0
22/09/2023,04:58:34,0.001,0.0,0.0,0.0
22/09/2023,04:59:34,0.001,0.0,0.0,0.0
22/09/2023,05:00:34,-0.000,0.0,0.0,0.0
22/09/2023,05:01:34,0.001,0.0,0.0,0.0
22/09/2023,05:02:34,0.000,0.0,0.0,0.0
22/09/2023,05:03:34,0.001,0.0,0.0,0.0
22/09/2023,05:04:34,0.001,0.0,0.0,0.0
22/09/2023,05:05:34,0.001,0.0,0.0,0.0
22/09/2023,05:06:34,0.002,0.0,0.0,0.0
22/09/2023,05:07:34,-0.000,0.0,0.0,0.0
22/09/2023,05:08:34,0.001,0.0,0.0,0.0
22/09/2023,05:09:34,0.001,0.0,0.0,0.0
22/09/2023,05:10:35,0.001,0.0,0.0,0.0
22/09/2023,05:11:34,0.001,0.0,0.0,0.0
22/09/2023,05:12:34,0.001,0.0,0.0,0.0
22/09/2023,05:13:34,0.000,0.0,0.0,0.0
22/09/2023,05:14:34,0.001,0.0,0.0,0.0
22/09/2023,05:15:34,0.001,0.0,0.0,0.0
22/09/2023,05:16:34,0.000,0.0,0.0,0.0
22/09/2023,05:17:34,0.002,0.0,0.0,0.0
22/09/2023,05:18:34,0.002,0.0,0.0,0.0
22/09/2023,05:19:34,0.001,0.0,0.0,0.0
22/09/2023,05:20:34,0.001,0.0,0.0,0.0
22/09/2023,05:21:34,0.001,0.0,0.0,0.0
22/09/2023,05:22:34,0.001,0.0,0.0,0.0
22/09/2023,05:23:34,0.001,0.0,0.0,0.0
22/09/2023,05:24:34,0.002,0.0,0.0,0.0
22/09/2023,05:25:34,0.002,0.0,0.0,0.0
22/09/2023,05:26:34,0.000,0.0,0.0,0.0
22/09/2023,05:27:32,0.001,0.0,0.0,0.0
22/09/2023,05:28:32,0.003,0.0,0.0,0.0
22/09/2023,05:29:34,0.002,0.0,0.0,0.0
22/09/2023,05:30:35,0.001,0.0,0.0,0.0
22/09/2023,05:31:34,0.002,0.0,0.0,0.0
22/09/2023,05:32:34,0.000,0.0,0.0,0.0
22/09/2023,05:33:34,0.002,0.0,0.0,0.0
22/09/2023,05:34:34,0.002,0.0,0.0,0.0
22/09/2023,05:35:34,0.002,0.0,0.0,0.0
22/09/2023,05:36:34,0.001,0.0,0.0,0.0
22/09/2023,05:37:34,0.002,0.0,0.0,0.0
22/09/2023,05:38:34,0.001,0.0,0.0,0.0
22/09/2023,05:39:34,0.002,0.0,0.0,0.0
22/09/2023,05:40:34,0.002,0.0,0.0,0.0
22/09/2023,05:41:34,0.002,0.0,0.0,0.0
22/09/2023,05:42:34,0.002,0.0,0.0,0.0
22/09/2023,05:43:34,0.001,0.0,0.0,0.0
22/09/2023,05:44:34,0.003,0.0,0.0,0.0
22/09/2023,05:45:34,0.002,0.0,0.0,0.0
22/09/2023,05:46:34,0.002,0.0,0.0,0.0
22/09/2023,05:47:34,0.003,0.0,0.0,0.0
22/09/2023,05:48:34,0.003,0.0,0.0,0.0
22/09/2023,05:49:34,0.003,0.0,0.0,0.0
22/09/2023,05:50:34,0.004,0.0,0.0,0.0
22/09/2023,05:51:34,0.003,0.0,0.0,0.0
22/09/2023,05:52:34,0.004,0.0,0.0,0.0
22/09/2023,05:53:34,0.004,0.0,0.0,0.0
22/09/2023,05:54:34,0.003,0.0,0.0,0.0
22/09/2023,05:55:34,0.004,0.0,0.0,0.0
22/09/2023,05:56:34,0.005,0.0,0.0,0.0
22/09/2023,05:57:34,0.005,0.0,0.0,0.0
22/09/2023,05:58:34,0.005,0.0,0.0,0.0
22/09/2023,05:59:34,0.004,0.0,0.0,0.0
22/09/2023,06:00:34,0.006,0.0,0.0,0.0
22/09/2023,06:01:34,0.007,0.0,0.0,0.0
22/09/2023,06:02:34,0.006,0.0,0.0,0.0
22/09/2023,06:03:34,0.007,0.0,0.0,0.0
22/09/2023,06:04:34,0.007,0.0,0.0,0.0
22/09/2023,06:05:34,0.008,0.0,0.001,0.001
22/09/2023,06:06:34,0.007,0.0,0.001,0.0
22/09/2023,06:07:34,0.009,0.0,0.001,0.0
22/09/2023,06:08:34,0.008,0.0,0.001,0.0
22/09/2023,06:09:34,0.010,0.0,0.001,0.0
22/09/2023,06:10:34,0.010,0.0,0.001,0.0
22/09/2023,06:11:34,0.009,0.0,0.001,0.0
22/09/2023,06:12:35,0.011,0.0,0.002,0.001
22/09/2023,06:13:34,0.011,0.0,0.002,0.0
22/09/2023,06:14:34,0.011,0.0,0.002,0.0
22/09/2023,06:15:34,0.012,0.0,0.002,0.0
22/09/2023,06:16:34,0.013,0.0,0.002,0.0
22/09/2023,06:17:34,0.013,0.0,0.003,0.001
22/09/2023,06:18:34,0.013,0.0,0.003,0.0
22/09/2023,06:19:34,0.014,0.0,0.003,0.0
22/09/2023,06:20:34,0.015,0.0,0.003,0.0
22/09/2023,06:21:34,0.016,0.0,0.004,0.001
22/09/2023,06:22:34,0.016,0.0,0.004,0.0
22/09/2023,06:23:34,0.016,0.0,0.004,0.0
22/09/2023,06:24:35,0.018,0.0,0.004,0.0
22/09/2023,06:25:33,0.018,0.0,0.005,0.001
22/09/2023,06:26:35,0.019,0.0,0.005,0.0
22/09/2023,06:27:34,0.020,0.0,0.005,0.0
22/09/2023,06:28:34,0.020,0.0,0.006,0.001
22/09/2023,06:29:34,0.021,0.0,0.006,0.0
22/09/2023,06:30:34,0.022,0.0,0.006,0.0
22/09/2023,06:31:36,0.023,0.0,0.007,0.001
22/09/2023,06:32:34,0.023,0.0,0.007,0.0
22/09/2023,06:33:34,0.023,0.0,0.007,0.0
22/09/2023,06:34:35,0.025,0.0,0.008,0.001
22/09/2023,06:35:34,0.026,0.0,0.008,0.0
22/09/2023,06:36:34,0.027,0.0,0.009,0.001
22/09/2023,06:37:34,0.028,0.0,0.009,0.0
22/09/2023,06:38:34,0.028,0.0,0.01,0.001
22/09/2023,06:39:34,0.030,0.0,0.01,0.0
22/09/2023,06:40:34,0.031,0.0,0.011,0.001
22/09/2023,06:41:32,0.031,0.0,0.011,0.0
22/09/2023,06:42:32,0.032,0.0,0.012,0.001
22/09/2023,06:43:34,0.033,0.0,0.012,0.0
22/09/2023,06:44:34,0.034,0.0,0.013,0.001
22/09/2023,06:45:34,0.036,0.0,0.013,0.0
22/09/2023,06:46:34,0.037,0.0,0.014,0.001
22/09/2023,06:47:34,0.038,0.0,0.015,0.001
22/09/2023,06:48:34,0.038,0.0,0.015,0.0
22/09/2023,06:49:34,0.040,0.0,0.016,0.001
22/09/2023,06:50:34,0.040,0.0,0.017,0.001
22/09/2023,06:51:34,0.042,0.0,0.017,0.0
22/09/2023,06:52:34,0.043,0.0,0.018,0.001
22/09/2023,06:53:34,0.044,0.0,0.019,0.001
22/09/2023,06:54:34,0.046,0.0,0.019,0.0
22/09/2023,06:55:34,0.047,0.0,0.02,0.001
22/09/2023,06:56:35,0.048,0.0,0.021,0.001
22/09/2023,06:57:34,0.049,0.0,0.022,0.001
22/09/2023,06:58:34,0.052,0.0,0.023,0.001
22/09/2023,06:59:34,0.052,0.0,0.024,0.001
22/09/2023,07:00:35,0.054,0.0,0.024,0.0
22/09/2023,07:01:35,0.056,0.0,0.025,0.001
22/09/2023,07:02:34,0.057,0.0,0.026,0.001
22/09/2023,07:03:32,0.058,0.0,0.027,0.001
22/09/2023,07:04:32,0.059,0.0,0.028,0.001
22/09/2023,07:05:34,0.061,0.0,0.029,0.001
22/09/2023,07:06:35,0.063,0.0,0.03,0.001
22/09/2023,07:07:34,0.064,0.0,0.031,0.001
22/09/2023,07:08:35,0.066,0.0,0.032,0.001
22/09/2023,07:09:34,0.067,0.0,0.033,0.001
22/09/2023,07:10:35,0.070,0.0,0.035,0.002
22/09/2023,07:11:35,0.070,0.0,0.036,0.001
22/09/2023,07:12:34,0.071,0.0,0.037,0.001
22/09/2023,07:13:34,0.074,0.0,0.038,0.001
22/09/2023,07:14:34,0.076,0.0,0.039,0.001
22/09/2023,07:15:34,0.078,0.0,0.041,0.002
22/09/2023,07:16:35,0.080,0.0,0.042,0.001
22/09/2023,07:17:34,0.081,0.0,0.043,0.001
22/09/2023,07:18:34,0.083,0.0,0.045,0.002
22/09/2023,07:19:34,0.085,0.0,0.046,0.001
22/09/2023,07:20:34,0.087,0.0,0.047,0.001
22/09/2023,07:21:35,0.089,0.0,0.049,0.002
22/09/2023,07:22:35,0.091,0.0,0.05,0.001
22/09/2023,07:23:34,0.093,0.0,0.052,0.002
22/09/2023,07:24:32,0.095,0.0,0.053,0.001
22/09/2023,07:25:32,0.096,0.0,0.055,0.002
22/09/2023,07:26:34,0.098,0.0,0.057,0.002
22/09/2023,07:27:34,0.100,0.0,0.058,0.001
22/09/2023,07:28:34,0.103,0.0,0.06,0.002
22/09/2023,07:29:34,0.105,0.0,0.062,0.002
22/09/2023,07:30:34,0.107,0.0,0.064,0.002
22/09/2023,07:31:34,0.109,0.0,0.065,0.001
22/09/2023,07:32:34,0.113,0.0,0.067,0.002
22/09/2023,07:33:34,0.114,0.0,0.069,0.002
22/09/2023,07:34:34,0.117,0.0,0.071,0.002
22/09/2023,07:35:35,0.118,0.0,0.073,0.002
22/09/2023,07:36:34,0.121,0.0,0.075,0.002
22/09/2023,07:37:34,0.122,0.0,0.077,0.002
22/09/2023,07:38:34,0.126,0.0,0.079,0.002
22/09/2023,07:39:35,0.128,0.0,0.081,0.002
22/09/2023,07:40:34,0.130,0.0,0.083,0.002
22/09/2023,07:41:35,0.134,0.0,0.086,0.003
22/09/2023,07:42:34,0.136,0.0,0.088,0.002
22/09/2023,07:43:35,0.138,0.0,0.09,0.002
22/09/2023,07:44:35,0.140,0.0,0.092,0.002
22/09/2023,07:45:35,0.143,0.0,0.095,0.003
22/09/2023,07:46:34,0.145,0.0,0.097,0.002
22/09/2023,07:47:36,0.150,0.0,0.1,0.003
22/09/2023,07:48:35,0.152,0.0,0.102,0.002
22/09/2023,07:49:34,0.153,0.0,0.105,0.003
22/09/2023,07:50:34,0.157,0.0,0.107,0.002
22/09/2023,07:51:34,0.160,0.0,0.11,0.003
22/09/2023,07:52:35,0.163,0.0,0.113,0.003
22/09/2023,07:53:34,0.166,0.0,0.115,0.002
22/09/2023,07:54:34,0.168,0.0,0.118,0.003
22/09/2023,07:55:34,0.171,0.0,0.121,0.003
22/09/2023,07:56:34,0.174,0.0,0.124,0.003
22/09/2023,07:57:34,0.177,0.0,0.127,0.003
22/09/2023,07:58:34,0.180,0.0,0.13,0.003
22/09/2023,07:59:34,0.184,0.0,0.133,0.003
22/09/2023,08:00:34,0.187,0.0,0.136,0.003
22/09/2023,08:01:34,0.190,0.0,0.139,0.003
22/09/2023,08:02:34,0.194,0.0,0.142,0.003
22/09/2023,08:04:04,0.198,0.0,0.147,0.005
22/09/2023,08:05:33,0.202,0.0,0.152,0.005
22/09/2023,08:06:32,0.206,0.0,0.155,0.003
22/09/2023,08:07:34,0.209,0.0,0.159,0.004
22/09/2023,08:08:34,0.212,0.0,0.162,0.003
22/09/2023,08:09:34,0.214,0.0,0.166,0.004
22/09/2023,08:10:34,0.219,1.0,0.169,0.003
22/09/2023,08:11:35,0.224,1.0,0.173,0.004
22/09/2023,08:12:35,0.227,1.0,0.177,0.004
22/09/2023,08:13:32,0.230,1.0,0.181,0.004
22/09/2023,08:14:33,0.233,1.0,0.184,0.003
22/09/2023,08:15:34,0.238,1.0,0.188,0.004
22/09/2023,08:16:34,0.242,1.0,0.192,0.004
22/09/2023,08:17:34,0.244,1.0,0.197,0.005
22/09/2023,08:18:35,0.249,1.0,0.201,0.004
22/09/2023,08:19:35,0.252,1.0,0.205,0.004
22/09/2023,08:20:35,0.256,1.0,0.209,0.004
22/09/2023,08:21:34,0.259,1.0,0.213,0.004
22/09/2023,08:22:34,0.264,1.0,0.218,0.005
22/09/2023,08:23:32,0.267,1.0,0.222,0.004
22/09/2023,08:24:33,0.272,1.0,0.226,0.004
22/09/2023,08:25:35,0.276,1.0,0.231,0.005
22/09/2023,08:26:35,0.279,1.0,0.236,0.005
22/09/2023,08:27:34,0.282,1.0,0.24,0.004
22/09/2023,08:28:35,0.287,1.0,0.245,0.005
22/09/2023,08:29:35,0.291,1.0,0.25,0.005
22/09/2023,08:30:34,0.296,1.0,0.255,0.005
22/09/2023,08:31:35,0.301,1.0,0.26,0.005
22/09/2023,08:32:35,0.306,1.0,0.265,0.005
22/09/2023,08:33:34,0.308,1.0,0.27,0.005
22/09/2023,08:34:34,0.314,1.0,0.275,0.005
22/09/2023,08:35:34,0.317,1.0,0.28,0.005
22/09/2023,08:36:34,0.322,1.0,0.286,0.006
22/09/2023,08:37:32,0.327,1.0,0.291,0.005
22/09/2023,08:38:33,0.330,1.0,0.297,0.006
22/09/2023,08:39:32,0.336,1.0,0.302,0.005
22/09/2023,08:40:33,0.341,1.0,0.308,0.006
22/09/2023,08:41:34,0.343,1.0,0.314,0.006
22/09/2023,08:42:35,0.347,1.0,0.319,0.005
22/09/2023,08:43:35,0.352,1.0,0.325,0.006
22/09/2023,08:44:35,0.357,1.0,0.331,0.006
22/09/2023,08:45:34,0.361,1.0,0.337,0.006
22/09/2023,08:46:35,0.367,1.0,0.343,0.006
22/09/2023,08:47:34,0.372,1.0,0.349,0.006
22/09/2023,08:48:35,0.376,1.0,0.356,0.007
22/09/2023,08:49:35,0.380,1.0,0.362,0.006
22/09/2023,08:50:35,0.386,1.0,0.368,0.006
22/09/2023,08:51:35,0.390,1.0,0.375,0.007
22/09/2023,08:52:35,0.397,1.0,0.381,0.006
22/09/2023,08:53:35,0.401,1.0,0.388,0.007
22/09/2023,08:54:34,0.406,1.0,0.395,0.007
22/09/2023,08:55:35,0.411,1.0,0.401,0.006
22/09/2023,08:56:35,0.415,1.0,0.408,0.007
22/09/2023,08:57:35,0.420,1.0,0.415,0.007
22/09/2023,08:58:36,0.425,1.0,0.423,0.008
22/09/2023,08:59:35,0.430,1.0,0.429,0.006
22/09/2023,09:00:34,0.435,1.0,0.437,0.008
22/09/2023,09:01:34,0.440,1.0,0.444,0.007
22/09/2023,09:02:34,0.445,1.0,0.451,0.007
22/09/2023,09:03:34,0.449,1.0,0.459,0.008
22/09/2023,09:04:35,0.454,1.0,0.466,0.007
22/09/2023,09:05:34,0.459,1.0,0.474,0.008
22/09/2023,09:06:35,0.465,1.0,0.482,0.008
22/09/2023,09:07:35,0.470,1.0,0.489,0.007
22/09/2023,09:08:34,0.475,1.0,0.497,0.008
22/09/2023,09:09:34,0.480,1.0,0.505,0.008
22/09/2023,09:10:35,0.486,1.0,0.513,0.008
22/09/2023,09:11:35,0.490,1.0,0.521,0.008
22/09/2023,09:12:35,0.497,1.0,0.53,0.009
22/09/2023,09:13:35,0.501,1.0,0.538,0.008
22/09/2023,09:14:34,0.506,1.0,0.546,0.008
22/09/2023,09:15:35,0.513,1.0,0.555,0.009
22/09/2023,09:16:34,0.519,1.0,0.564,0.009
22/09/2023,09:17:35,0.524,1.0,0.572,0.008
22/09/2023,09:18:34,0.529,1.0,0.581,0.009
22/09/2023,09:19:34,0.535,1.0,0.59,0.009
22/09/2023,09:20:34,0.541,1.0,0.599,0.009
22/09/2023,09:21:34,0.546,1.0,0.608,0.009
22/09/2023,09:22:35,0.550,1.0,0.617,0.009
22/09/2023,09:23:34,0.557,1.0,0.626,0.009
22/09/2023,09:24:34,0.562,1.0,0.636,0.01
22/09/2023,09:25:34,0.569,1.0,0.645,0.009
22/09/2023,09:26:34,0.574,1.0,0.655,0.01
22/09/2023,09:27:34,0.578,1.0,0.664,0.009
22/09/2023,09:28:35,0.582,1.0,0.674,0.01
22/09/2023,09:29:34,0.590,1.0,0.684,0.01
22/09/2023,09:30:35,0.595,1.0,0.693,0.009
22/09/2023,09:31:34,0.598,1.0,0.703,0.01
22/09/2023,09:32:34,0.605,1.0,0.713,0.01
22/09/2023,09:33:34,0.609,1.0,0.723,0.01
22/09/2023,09:34:34,0.612,1.0,0.734,0.011
22/09/2023,09:35:34,0.616,1.0,0.744,0.01
22/09/2023,09:36:35,0.579,1.0,0.754,0.01
22/09/2023,09:37:35,0.570,1.0,0.763,0.009
22/09/2023,09:38:34,0.616,1.0,0.773,0.01
22/09/2023,09:39:35,0.630,1.0,0.784,0.011
22/09/2023,09:40:35,0.631,1.0,0.794,0.01
22/09/2023,09:41:34,0.622,1.0,0.804,0.01
22/09/2023,09:42:35,0.641,1.0,0.815,0.011
22/09/2023,09:43:34,0.642,1.0,0.826,0.011
22/09/2023,09:44:34,0.645,1.0,0.836,0.01
22/09/2023,09:45:34,0.655,2.0,0.847,0.011
22/09/2023,09:46:32,0.650,1.0,0.858,0.011
22/09/2023,09:47:32,0.659,2.0,0.869,0.011
22/09/2023,09:48:35,0.657,2.0,0.88,0.011
22/09/2023,09:49:34,0.663,2.0,0.891,0.011
22/09/2023,09:50:35,0.677,2.0,0.902,0.011
22/09/2023,09:51:34,0.685,2.0,0.914,0.012
22/09/2023,09:52:35,0.694,2.0,0.925,0.011
22/09/2023,09:53:35,0.698,2.0,0.937,0.012
22/09/2023,09:54:34,0.696,2.0,0.948,0.011
22/09/2023,09:55:34,0.700,2.0,0.96,0.012
22/09/2023,09:56:34,0.714,2.0,0.972,0.012
22/09/2023,09:57:34,0.718,2.0,0.983,0.011
22/09/2023,09:58:34,0.719,2.0,0.995,0.012
22/09/2023,09:59:34,0.726,2.0,1.007,0.012
22/09/2023,10:00:35,0.723,2.0,1.02,0.013
22/09/2023,10:01:35,0.735,2.0,1.032,0.012
22/09/2023,10:02:34,0.743,2.0,1.044,0.012
22/09/2023,10:03:34,0.748,2.0,1.056,0.012
22/09/2023,10:04:35,0.753,2.0,1.069,0.013
22/09/2023,10:05:35,0.757,2.0,1.081,0.012
22/09/2023,10:06:34,0.766,2.0,1.094,0.013